Weather History for Billings, MT

Change the Weather History Date:

Tuesday, May 7, 2013

  Actual Average Record
Temperature  
Mean Temperature 62 °F 53 °F  
Max Temperature 79 °F 65 °F 88 °F (1992)
Min Temperature 45 °F 41 °F 29 °F (2010)
Degree Days  
Heating Degree Days 3 13  
Month to date heating degree days 91 94  
Since 1 July heating degree days 6183 6471  
Cooling Degree Days 0 0  
Month to date cooling degree days 0 0  
Year to date cooling degree days 0 1  
Growing Degree Days 12 (Base 50)    
Moisture  
Dew Point 31 °F    
Average Humidity 37    
Maximum Humidity 58    
Minimum Humidity 16    
Precipitation  
Precipitation 0.00 in 0.06 in 0.88 in (1988)
Month to date precipitation 0.02 0.44  
Year to date precipitation 2.18 4.12  
Snow  
Snow 0.00 in 0.10 in 2.90 in (2002)
Month to date snowfall T 0.9  
Since 1 July snowfall 40.4 53.9  
Snow Depth 0.00 in    
Sea Level Pressure  
Sea Level Pressure 29.82 in    
Wind  
Wind Speed 9 mph (NNW)    
Max Wind Speed 21 mph    
Max Gust Speed 28 mph    
Visibility 10 miles    
Events      
T = Trace of Precipitation, MM = Missing Value Source: NWS Daily Summary

Daily Weather History Graph

Daily Weather History Graph

Search for Another Location

Airport:

Trip Planner

Search our weather history database for the weather conditions in past years. The results will help you decide how hot, cold, wet, or windy it might be!

Date:

Astronomy

May. 07, 2013 Rise Set
Actual Time 5:52 AM MDT 8:29 PM MDT
Civil Twilight 5:18 AM MDT 9:03 PM MDT
Nautical Twilight 4:36 AM MDT 9:46 PM MDT
Astronomical Twilight 3:47 AM MDT 10:36 PM MDT
Moon 4:35 AM MDT (5/7) 6:27 PM MDT (5/7)
Length of Visible Light 15h 45m
Length of Day
14h 37m
Waning Crescent, 5% of the Moon is Illuminated
May 7
Waning Crescent
May 9
New
May 17
First Quarter
May 24
Full
May 31
Last Quarter

Hourly Weather History & Observations

Time (MDT) Temp. Windchill Dew Point Humidity Pressure Visibility Wind Dir Wind Speed Gust Speed Precip Events Conditions
12:53 AM 55.9 °F - 30.0 °F 37% 29.83 in 10.0 mi North 6.9 mph - N/A   Clear
1:53 AM 52.0 °F - 30.0 °F 43% 29.82 in 10.0 mi North 4.6 mph - N/A   Clear
2:53 AM 53.1 °F - 30.0 °F 41% 29.81 in 10.0 mi SSW 3.5 mph - N/A   Clear
3:53 AM 48.0 °F - 32.0 °F 54% 29.81 in 10.0 mi West 8.1 mph - N/A   Clear
4:53 AM 46.9 °F - 32.0 °F 56% 29.82 in 10.0 mi SW 6.9 mph - N/A   Clear
5:53 AM 46.0 °F 42.5 °F 30.9 °F 56% 29.82 in 10.0 mi SSW 6.9 mph - N/A   Clear
6:53 AM 48.0 °F - 32.0 °F 54% 29.83 in 10.0 mi SW 10.4 mph - N/A   Clear
7:53 AM 50.0 °F - 33.1 °F 52% 29.83 in 10.0 mi SW 12.7 mph - N/A   Clear
8:53 AM 55.9 °F - 33.1 °F 42% 29.83 in 10.0 mi SW 8.1 mph - N/A   Clear
9:53 AM 62.1 °F - 34.0 °F 35% 29.81 in 10.0 mi WSW 9.2 mph - N/A   Clear
10:53 AM 66.9 °F - 35.1 °F 31% 29.81 in 10.0 mi SW 8.1 mph - N/A   Partly Cloudy
11:53 AM 72.0 °F - 35.1 °F 26% 29.80 in 10.0 mi SSW 5.8 mph - N/A   Partly Cloudy
12:53 PM 73.9 °F - 32.0 °F 21% 29.78 in 10.0 mi Variable 3.5 mph - N/A   Partly Cloudy
1:53 PM 77.0 °F - 30.9 °F 19% 29.78 in 10.0 mi ESE 8.1 mph - N/A   Partly Cloudy
2:53 PM 79.0 °F - 30.9 °F 17% 29.77 in 10.0 mi North 9.2 mph 16.1 mph N/A   Scattered Clouds
3:53 PM 79.0 °F - 32.0 °F 18% 29.77 in 10.0 mi NE 12.7 mph - N/A   Scattered Clouds
4:53 PM 78.1 °F - 30.9 °F 18% 29.77 in 10.0 mi East 8.1 mph 19.6 mph N/A   Scattered Clouds
5:53 PM 77.0 °F - 28.9 °F 17% 29.79 in 10.0 mi NNE 13.8 mph - N/A   Scattered Clouds
6:53 PM 75.9 °F - 27.0 °F 16% 29.80 in 10.0 mi NNE 18.4 mph - N/A   Scattered Clouds
7:53 PM 73.0 °F - 28.0 °F 19% 29.82 in 10.0 mi NNE 12.7 mph - N/A   Scattered Clouds
8:53 PM 66.0 °F - 28.0 °F 24% 29.85 in 10.0 mi NNE 9.2 mph - N/A   Partly Cloudy
9:53 PM 63.0 °F - 30.0 °F 29% 29.87 in 10.0 mi North 8.1 mph - N/A   Partly Cloudy
10:53 PM 61.0 °F - 28.9 °F 30% 29.88 in 10.0 mi North 6.9 mph - N/A   Clear
11:53 PM 60.1 °F - 28.9 °F 31% 29.90 in 10.0 mi North 15.0 mph - N/A   Scattered Clouds